STAR ONE C2

Last updated on Tue Sep 22 2026 00:03:11 GMT+0000 (Coordinated Universal Time)

1 32768U 08018B 26264.45267569 -.00000280 00000+0 00000+0 0 9996 2 32768 1.4788 81.3566 0002451 90.5822 286.3763 1.00273032 67627
UTC large
Height (km)
Speed (km/s)
/
Latitude / Longitude
Inclination (degrees)
Orbital Period (minutes)
Azimuth
Elevation
Range (km)
Doppler Factor

Next 0 passes for location: London (51.5072 / 0.1276)

No passes found over London.
STAR ONE C2